This is the latest recevied weather packets stored in our database for station/object W5ITZ. If no packets are shown the sender has not sent any weather packets the latest 10 day(s).
| Time | Temp. | Humidity | Pressure | Rain* | Wind** | Luminosity | Snow |
|---|---|---|---|---|---|---|---|
| 1777909214 | 25° C | 65% | 1015.4 hPa | 0 mm | - | 369 W/m² | - |
| 1777908912 | 24.44° C | 66% | 1015.6 hPa | 0 mm | - | 754 W/m² | - |
| 1777908610 | 23.89° C | 69% | 1015.6 hPa | 0 mm | - | 209 W/m² | - |
| 1777908306 | 24.44° C | 66% | 1015.4 hPa | 0 mm | - | 266 W/m² | - |
| 1777908002 | 24.44° C | 67% | 1015.5 hPa | 0 mm | - | 192 W/m² | - |
| 1777907697 | 24.44° C | 67% | 1015.5 hPa | 0 mm | - | 713 W/m² | - |
| 1777907392 | 24.44° C | 67% | 1015.4 hPa | 0 mm | - | 300 W/m² | - |
| 1777907090 | 24.44° C | 67% | 1015.5 hPa | 0 mm | - | 152 W/m² | - |
| 1777906787 | 24.44° C | 68% | 1015.4 hPa | 0 mm | - | 205 W/m² | - |
| 1777906484 | 23.89° C | 69% | 1015.7 hPa | 0 mm | - | 457 W/m² | - |
| 1777906180 | 23.89° C | 67% | 1015.9 hPa | 0 mm | - | 176 W/m² | - |
| 1777905877 | 23.89° C | 69% | 1015.5 hPa | 0 mm | - | 643 W/m² | - |
| 1777905574 | 23.89° C | 69% | 1015.4 hPa | 0 mm | - | 598 W/m² | - |
| 1777905271 | 23.89° C | 68% | 1015.6 hPa | 0 mm | - | 170 W/m² | - |
| 1777904968 | 23.89° C | 68% | 1015.7 hPa | 0 mm | - | 524 W/m² | - |
| 1777904666 | 23.89° C | 71% | 1015.7 hPa | 0 mm | - | 497 W/m² | - |
| 1777904362 | 23.33° C | 73% | 1015.8 hPa | 0 mm | - | 488 W/m² | - |
| 1777904059 | 23.33° C | 73% | 1015.7 hPa | 0 mm | - | 453 W/m² | - |
| 1777903756 | 23.33° C | 73% | 1015.7 hPa | 0 mm | - | 424 W/m² | - |
| 1777903452 | 22.78° C | 74% | 1015.7 hPa | 0 mm | - | 404 W/m² | - |
| 1777903149 | 22.78° C | 76% | 1015.8 hPa | 0 mm | - | 378 W/m² | - |
| 1777902845 | 22.22° C | 78% | 1015.9 hPa | 0 mm | - | 117 W/m² | - |
| 1777902543 | 21.67° C | 77% | 1015.8 hPa | 0 mm | - | 156 W/m² | - |
| 1777902239 | 21.67° C | 79% | 1015.9 hPa | 0 mm | - | 91 W/m² | - |
| 1777901938 | 21.11° C | 81% | 1015.7 hPa | 0 mm | - | 280 W/m² | - |
* Rain latest hour (hover to see other rain measurements)
** Current wind speed in m/s (hover to see current wind gust speed)